sat.trackr.live / text

‹ back to catalog

STARLINK-35143

NORAD 65485 · 2025-195AD

PAYLOAD ACTIVE UNKNOWN

§ Identity

Operator
Country
US
Launch date
2025-09-03
Launch site
AFETR
Launch vehicle
Mass (kg)
RCS (m²)

Purposes: comms

External: N2YO · Heavens-Above · Gunter

§ Orbital elements

Epoch: 2026-09-20T04:39:27.908064Z

Period
94.01 min
Inclination
53.1598°
Eccentricity
0.0000213
Mean motion
15.31716712 rev/d
Perigee alt
470.5 km
Apogee alt
470.8 km
Semi-major
6,848.8 km
B*
3.0051e-4
RAAN
73.2512°
Arg perigee
221.9398°
Mean anomaly
138.1587°
Rev number
5,977

§ Raw data

STARLINK-351431 65485U 25195AD  26263.19407301  .00008977  00000+0  30051-3 0  99962 65485  53.1598  73.2512 0000213 221.9398 138.1587 15.31716712 59776

JSON: /api/v1/satellites/65485 · /tle

For live sub-satellite position, see the globe view (requires WebGL).

§ Visibility from observer

Set your observer location to see the next 7 days of passes ≥ 10°. The values pass through the URL so the page stays shareable.

No JS? Fill the form by hand. The geolocation button needs JavaScript.